Location: Cortos
(40.7190°N, 4.5893°W)
Time: 09:19:21
(UTC+00:00)

Cosmos 2221 - Pass Details

Date: 05 July 2020
Orbit: 592 x 616 km, 82.5° (Epoch: 08 August)

Event Time Altitude Azimuth Distance (km) Brightness Sun altitude
Rises 22:32:14 0° 352° (N) 2,891 7.2 -21.6°
Reaches altitude 10° 22:34:28 10° 353° (N) 1,979 6.1 -21.8°
Maximum altitude 22:38:51 88° 76° (ENE) 616 2.4 -22.1°
Enters shadow 22:39:20 71° 168° (SSE) 649 2.4 -22.2°
